StationID,Date,MaxTemp,MinTemp,Precipitation,Snowfall,SnowDepth
"USC00199891","2011-01-01",44.06,35.06,0.00,0.00,0.00
"USC00199891","2011-01-03",48.02,30.02,48.00,0.00,0.00
"USC00199891","2011-01-04",33.98,28.04,0.00,0.00,0.00
"USC00199891","2011-01-05",37.94,28.04,0.00,0.00,0.00
"USC00199891","2011-01-06",37.94,24.08,0.00,0.00,0.00
"USC00199891","2011-01-07",30.02,23.00,0.00,0.00,0.00
"USC00199891","2011-01-08",35.96,26.06,0.00,0.00,0.00
"USC00199891","2011-01-10",35.96,24.98,28.00,23.00,25.00
"USC00199891","2011-01-11",33.08,23.00,0.00,0.00,25.00
"USC00199891","2011-01-13",37.94,21.92,198.00,71.00,76.00
"USC00199891","2011-01-14",30.92,19.04,0.00,0.00,51.00
"USC00199891","2011-01-18",37.94,15.98,0.00,0.00,25.00
"USC00199891","2011-01-19",42.98,30.92,163.00,0.00,0.00
"USC00199891","2011-01-20",37.94,28.94,0.00,0.00,0.00
"USC00199891","2011-01-21",33.08,28.04,20.00,8.00,0.00
"USC00199891","2011-01-22",35.06,17.96,43.00,0.00,0.00
"USC00199891","2011-01-24",24.08,3.02,0.00,0.00,0.00
"USC00199891","2011-01-25",21.02,1.94,0.00,0.00,0.00
"USC00199891","2011-01-26",33.08,21.02,23.00,20.00,25.00
"USC00199891","2011-01-27",33.98,24.08,234.00,91.00,102.00
"USC00199891","2011-01-28",33.08,23.00,0.00,0.00,76.00
"USC00199891","2011-01-31",35.96,21.92,0.00,0.00,76.00
"USC00199891","2011-02-01",26.96,21.02,0.00,0.00,51.00
"USC00199891","2011-02-02",33.08,21.92,122.00,71.00,51.00
"USC00199891","2011-02-03",48.92,23.00,160.00,0.00,25.00
"USC00199891","2011-02-04",26.06,21.92,0.00,,
"USC00199891","2011-02-07",48.92,26.06,61.00,,
"USC00199891","2011-02-08",42.08,30.92,66.00,0.00,0.00
"USC00199891","2011-02-09",35.96,15.08,0.00,0.00,0.00
"USC00199891","2011-02-10",30.92,17.06,0.00,0.00,0.00
"USC00199891","2011-02-11",28.94,19.04,0.00,0.00,0.00
"USC00199891","2011-02-12",,,,0.00,0.00
"USC00199891","2011-02-13",,,,0.00,0.00
"USC00199891","2011-02-14",41.00,23.00,0.00,0.00,0.00
"USC00199891","2011-02-15",44.96,24.98,0.00,0.00,0.00
"USC00199891","2011-02-16",30.02,21.02,0.00,0.00,0.00
"USC00199891","2011-02-17",37.04,23.00,0.00,0.00,0.00
"USC00199891","2011-02-18",46.04,35.06,0.00,0.00,0.00
"USC00199891","2011-02-19",,,0.00,0.00,0.00
"USC00199891","2011-02-20",,,0.00,0.00,0.00
"USC00199891","2011-02-21",51.08,17.06,0.00,0.00,0.00
"USC00199891","2011-02-22",28.94,14.00,10.00,10.00,0.00
"USC00199891","2011-02-23",32.00,14.00,0.00,0.00,0.00
"USC00199891","2011-02-24",35.96,21.02,0.00,0.00,0.00
"USC00199891","2011-02-25",41.00,23.00,20.00,0.00,0.00
"USC00199891","2011-02-26",48.92,26.96,257.00,5.00,0.00
"USC00199891","2011-02-27",37.04,28.94,18.00,18.00,25.00
"USC00199891","2011-03-01",51.08,26.06,48.00,0.00,0.00
"USC00199891","2011-03-02",39.02,26.06,0.00,0.00,0.00
"USC00199891","2011-03-03",42.08,15.08,0.00,0.00,0.00
"USC00199891","2011-03-04",26.96,14.00,0.00,0.00,0.00
"USC00199891","2011-03-05",42.08,21.02,0.00,0.00,0.00
"USC00199891","2011-03-07",59.00,21.02,41.00,0.00,0.00
"USC00199891","2011-03-08",51.08,26.06,0.00,0.00,0.00
"USC00199891","2011-03-09",42.08,26.06,0.00,0.00,0.00
"USC00199891","2011-03-10",39.92,28.04,0.00,0.00,0.00
"USC00199891","2011-03-11",42.08,35.96,15.00,0.00,0.00
"USC00199891","2011-03-12",51.98,35.06,97.00,0.00,0.00
"USC00199891","2011-03-13",44.06,35.06,0.00,0.00,0.00
"USC00199891","2011-03-14",48.92,37.04,0.00,0.00,0.00
"USC00199891","2011-03-15",39.02,26.96,10.00,0.00,0.00
"USC00199891","2011-03-16",39.02,26.96,0.00,0.00,0.00
"USC00199891","2011-03-17",48.02,28.94,84.00,0.00,0.00
"USC00199891","2011-03-18",51.08,37.04,0.00,0.00,0.00
"USC00199891","2011-03-19",55.04,41.00,0.00,0.00,0.00
"USC00199891","2011-03-20",48.02,30.02,0.00,0.00,0.00
"USC00199891","2011-03-21",42.98,30.02,0.00,0.00,0.00
"USC00199891","2011-03-22",42.08,32.00,30.00,0.00,0.00
"USC00199891","2011-03-23",44.06,33.08,0.00,0.00,0.00
"USC00199891","2011-03-24",39.02,28.94,28.00,23.00,25.00
"USC00199891","2011-03-25",39.02,28.04,0.00,0.00,0.00
"USC00199891","2011-03-26",42.08,26.06,0.00,0.00,0.00
"USC00199891","2011-03-27",39.92,26.06,0.00,0.00,0.00
"USC00199891","2011-03-28",42.98,26.06,0.00,0.00,0.00
"USC00199891","2011-03-29",44.96,26.96,0.00,0.00,0.00
"USC00199891","2011-03-30",46.04,32.00,0.00,0.00,0.00
"USC00199891","2011-03-31",48.02,32.00,0.00,0.00,0.00
"USC00199891","2011-04-01",42.08,32.00,302.00,0.00,0.00
"USC00199891","2011-04-02",39.02,35.96,0.00,,
"USC00199891","2011-04-03",48.92,37.04,0.00,,
"USC00199891","2011-04-04",53.06,37.04,0.00,0.00,0.00
"USC00199891","2011-04-05",50.00,41.00,5.00,0.00,0.00
"USC00199891","2011-04-06",55.04,35.96,41.00,0.00,0.00
"USC00199891","2011-04-07",48.92,35.96,0.00,0.00,0.00
"USC00199891","2011-04-08",44.06,33.98,0.00,0.00,0.00
"USC00199891","2011-04-09",48.02,33.98,0.00,0.00,0.00
"USC00199891","2011-04-10",50.00,33.08,0.00,0.00,0.00
"USC00199891","2011-04-11",55.94,33.08,3.00,0.00,0.00
"USC00199891","2011-04-12",50.00,42.98,0.00,0.00,0.00
"USC00199891","2011-04-13",57.92,42.98,137.00,0.00,0.00
"USC00199891","2011-04-14",55.04,42.08,683.00,0.00,0.00
"USC00199891","2011-04-15",57.02,39.02,0.00,0.00,0.00
"USC00199891","2011-04-16",46.04,35.96,0.00,,
"USC00199891","2011-04-17",55.04,37.04,102.00,,
"USC00199891","2011-04-18",55.94,42.08,0.00,0.00,0.00
"USC00199891","2011-04-19",55.04,42.98,0.00,0.00,0.00
"USC00199891","2011-04-20",53.06,42.08,15.00,0.00,0.00
"USC00199891","2011-04-21",51.08,42.98,0.00,0.00,0.00
"USC00199891","2011-04-22",55.94,37.04,0.00,0.00,0.00
"USC00199891","2011-04-23",51.08,37.04,0.00,0.00,0.00
"USC00199891","2011-04-24",51.98,42.98,64.00,,
"USC00199891","2011-04-25",57.02,42.98,5.00,0.00,0.00
"USC00199891","2011-04-26",59.00,46.94,0.00,0.00,0.00
"USC00199891","2011-04-27",55.94,51.08,5.00,0.00,0.00
"USC00199891","2011-04-28",62.96,53.06,30.00,0.00,0.00
"USC00199891","2011-04-29",66.02,50.00,170.00,0.00,0.00
"USC00199891","2011-04-30",66.92,50.00,0.00,,
"USC00199891","2011-05-01",59.00,42.08,0.00,0.00,0.00
"USC00199891","2011-05-02",55.04,41.00,0.00,0.00,0.00
"USC00199891","2011-05-03",60.08,41.00,0.00,0.00,0.00
"USC00199891","2011-05-04",62.96,48.92,0.00,0.00,0.00
"USC00199891","2011-05-05",62.06,44.96,104.00,0.00,0.00
"USC00199891","2011-05-06",55.94,44.96,3.00,0.00,0.00
"USC00199891","2011-05-07",60.08,48.02,0.00,,
"USC00199891","2011-05-08",64.94,46.94,0.00,,
"USC00199891","2011-05-09",57.02,48.02,0.00,0.00,0.00
"USC00199891","2011-05-10",60.98,46.94,5.00,0.00,0.00
"USC00199891","2011-05-11",51.98,44.96,3.00,0.00,0.00
"USC00199891","2011-05-12",59.00,44.96,3.00,0.00,0.00
"USC00199891","2011-05-15",62.06,46.04,13.00,0.00,0.00
"USC00199891","2011-05-16",50.00,48.92,0.00,,
"USC00199891","2011-05-17",55.04,48.02,89.00,,
"USC00199891","2011-05-18",59.00,48.02,114.00,0.00,0.00
"USC00199891","2011-05-19",55.94,53.06,41.00,0.00,0.00
"USC00199891","2011-05-20",62.96,53.96,18.00,0.00,0.00
"USC00199891","2011-05-21",68.00,51.98,5.00,0.00,0.00
"USC00199891","2011-05-22",62.96,46.94,5.00,0.00,0.00
"USC00199891","2011-05-23",53.96,46.04,0.00,0.00,0.00
"USC00199891","2011-05-24",62.06,46.04,23.00,0.00,0.00
"USC00199891","2011-05-25",62.06,55.04,0.00,0.00,0.00
"USC00199891","2011-05-26",73.04,53.06,0.00,0.00,0.00
"USC00199891","2011-05-27",69.98,53.06,0.00,0.00,0.00
"USC00199891","2011-05-28",73.94,59.00,0.00,0.00,0.00
"USC00199891","2011-05-30",73.94,60.08,0.00,0.00,0.00
"USC00199891","2011-05-31",78.08,60.08,0.00,0.00,0.00
"USC00199891","2011-06-01",73.94,55.04,0.00,,
"USC00199891","2011-06-02",71.06,57.92,0.00,0.00,0.00
"USC00199891","2011-06-03",71.96,55.04,0.00,0.00,0.00
"USC00199891","2011-06-04",64.04,51.98,0.00,,
"USC00199891","2011-06-05",64.94,46.04,0.00,0.00,0.00
"USC00199891","2011-06-06",64.04,48.02,0.00,0.00,0.00
"USC00199891","2011-06-07",73.94,55.94,0.00,0.00,0.00
"USC00199891","2011-06-08",78.08,59.00,0.00,0.00,0.00
"USC00199891","2011-06-09",80.96,60.98,58.00,0.00,0.00
"USC00199891","2011-06-10",78.98,64.04,56.00,,
"USC00199891","2011-06-11",77.00,59.00,0.00,0.00,0.00
"USC00199891","2011-06-12",60.98,53.96,175.00,0.00,0.00
"USC00199891","2011-06-13",60.08,51.98,178.00,0.00,0.00
"USC00199891","2011-06-14",64.94,53.06,8.00,0.00,0.00
"USC00199891","2011-06-15",59.00,51.98,5.00,0.00,0.00
"USC00199891","2011-06-16",66.92,53.06,0.00,0.00,0.00
"USC00199891","2011-06-17",71.96,57.92,0.00,,
"USC00199891","2011-06-18",69.08,60.08,79.00,0.00,0.00
"USC00199891","2011-06-19",71.96,60.08,0.00,0.00,0.00
"USC00199891","2011-06-20",73.04,57.02,0.00,0.00,0.00
"USC00199891","2011-06-21",73.94,59.00,0.00,0.00,0.00
"USC00199891","2011-06-22",75.92,60.98,0.00,0.00,0.00
"USC00199891","2011-06-23",68.00,62.96,216.00,,
"USC00199891","2011-06-24",68.00,57.92,102.00,0.00,0.00
"USC00199891","2011-06-25",66.92,57.92,0.00,,
"USC00199891","2011-06-26",71.06,59.00,0.00,0.00,0.00
"USC00199891","2011-06-27",73.04,60.98,0.00,0.00,0.00
"USC00199891","2011-06-28",78.08,62.96,0.00,0.00,0.00
"USC00199891","2011-06-29",73.04,64.04,8.00,0.00,0.00
"USC00199891","2011-06-30",75.02,64.04,3.00,0.00,0.00
"USC00199891","2011-07-01",75.02,62.06,0.00,0.00,0.00
"USC00199891","2011-07-02",73.04,59.00,0.00,0.00,0.00
"USC00199891","2011-07-03",75.92,60.08,0.00,0.00,0.00
"USC00199891","2011-07-04",75.02,64.04,3.00,0.00,0.00
"USC00199891","2011-07-05",75.02,64.94,0.00,,
"USC00199891","2011-07-06",82.04,64.94,0.00,0.00,0.00
"USC00199891","2011-07-07",71.96,64.94,0.00,0.00,0.00
"USC00199891","2011-07-08",82.04,66.92,0.00,0.00,0.00
"USC00199891","2011-07-09",71.96,62.96,356.00,0.00,0.00
"USC00199891","2011-07-10",78.98,62.96,3.00,0.00,0.00
"USC00199891","2011-07-11",78.08,62.96,0.00,0.00,0.00
"USC00199891","2011-07-12",78.98,66.02,76.00,0.00,0.00
"USC00199891","2011-07-13",82.04,69.98,0.00,0.00,0.00
"USC00199891","2011-07-14",80.96,59.00,389.00,0.00,0.00
"USC00199891","2011-07-15",69.08,59.00,15.00,0.00,0.00
"USC00199891","2011-07-16",77.00,62.96,0.00,,
"USC00199891","2011-07-17",75.92,64.94,0.00,,
"USC00199891","2011-07-18",78.98,66.02,0.00,0.00,0.00
"USC00199891","2011-07-19",78.98,66.92,10.00,0.00,0.00
"USC00199891","2011-07-20",80.96,68.00,0.00,,
"USC00199891","2011-07-21",78.98,68.00,0.00,0.00,0.00
"USC00199891","2011-07-22",71.96,68.00,0.00,0.00,0.00
"USC00199891","2011-07-23",82.94,66.92,0.00,0.00,0.00
"USC00199891","2011-07-24",84.02,69.08,56.00,0.00,0.00
"USC00199891","2011-07-25",78.98,66.02,114.00,0.00,0.00
"USC00199891","2011-07-26",71.96,62.06,3.00,0.00,0.00
"USC00199891","2011-07-27",73.94,64.04,33.00,0.00,0.00
"USC00199891","2011-07-28",77.00,64.94,0.00,0.00,0.00
"USC00199891","2011-07-29",82.04,62.96,0.00,0.00,0.00
"USC00199891","2011-07-30",75.02,64.94,0.00,0.00,0.00
"USC00199891","2011-07-31",84.92,66.92,0.00,0.00,0.00
"USC00199891","2011-08-01",80.06,68.00,0.00,0.00,0.00
"USC00199891","2011-08-02",80.06,68.00,0.00,0.00,0.00
"USC00199891","2011-08-03",80.06,64.04,79.00,0.00,0.00
"USC00199891","2011-08-04",75.02,62.96,0.00,0.00,0.00
"USC00199891","2011-08-05",75.02,60.98,0.00,0.00,0.00
"USC00199891","2011-08-06",75.02,62.96,38.00,0.00,0.00
"USC00199891","2011-08-07",77.00,66.92,41.00,0.00,0.00
"USC00199891","2011-08-08",71.96,66.92,150.00,0.00,0.00
"USC00199891","2011-08-09",80.96,66.02,30.00,0.00,0.00
"USC00199891","2011-08-10",75.02,66.02,8.00,0.00,0.00
"USC00199891","2011-08-11",78.98,60.98,0.00,0.00,0.00
"USC00199891","2011-08-12",77.00,60.98,0.00,0.00,0.00
"USC00199891","2011-08-13",78.08,64.04,0.00,0.00,0.00
"USC00199891","2011-08-14",80.06,64.94,0.00,0.00,0.00
"USC00199891","2011-08-15",75.02,68.00,23.00,0.00,0.00
"USC00199891","2011-08-16",69.98,60.98,366.00,0.00,0.00
"USC00199891","2011-08-17",71.06,60.98,3.00,0.00,0.00
"USC00199891","2011-08-18",78.98,66.02,0.00,0.00,0.00
"USC00199891","2011-08-19",77.00,68.00,0.00,0.00,0.00
"USC00199891","2011-08-20",78.08,68.00,0.00,0.00,0.00
"USC00199891","2011-08-21",78.98,68.00,0.00,0.00,
"USC00199891","2011-08-22",78.98,69.08,15.00,0.00,0.00
"USC00199891","2011-08-23",77.00,62.06,0.00,0.00,0.00
"USC00199891","2011-08-24",75.02,62.06,0.00,0.00,0.00
"USC00199891","2011-08-25",75.92,66.02,0.00,0.00,0.00
"USC00199891","2011-08-26",78.98,69.08,28.00,0.00,0.00
"USC00199891","2011-08-27",80.96,69.08,0.00,0.00,0.00
"USC00199891","2011-08-29",75.92,62.96,61.00,0.00,0.00
"USC00199891","2011-08-30",73.94,60.08,0.00,0.00,0.00
"USC00199891","2011-08-31",78.08,60.08,0.00,0.00,0.00
"USC00199891","2011-09-01",80.06,62.96,0.00,0.00,0.00
"USC00199891","2011-09-02",73.04,59.00,0.00,0.00,0.00
"USC00199891","2011-09-04",73.94,55.94,0.00,0.00,0.00
"USC00199891","2011-09-05",73.04,66.02,0.00,0.00,0.00
"USC00199891","2011-09-06",78.08,66.92,8.00,0.00,0.00
"USC00199891","2011-09-07",69.98,57.02,279.00,0.00,0.00
"USC00199891","2011-09-08",66.02,60.98,467.00,0.00,0.00
"USC00199891","2011-09-09",71.96,57.92,107.00,0.00,0.00
"USC00199891","2011-09-11",73.94,59.00,0.00,0.00,0.00
"USC00199891","2011-09-12",66.02,59.00,0.00,0.00,0.00
"USC00199891","2011-09-13",75.92,62.96,0.00,0.00,0.00
"USC00199891","2011-09-14",73.94,64.94,0.00,0.00,0.00
"USC00199891","2011-09-15",75.02,66.92,0.00,0.00,0.00
"USC00199891","2011-09-16",73.94,50.00,8.00,0.00,0.00
"USC00199891","2011-09-17",64.04,50.00,0.00,0.00,0.00
"USC00199891","2011-09-18",62.06,48.92,0.00,0.00,0.00
"USC00199891","2011-09-19",62.06,51.98,0.00,0.00,0.00
"USC00199891","2011-09-20",68.00,53.06,0.00,0.00,0.00
"USC00199891","2011-09-21",68.00,55.94,0.00,0.00,0.00
"USC00199891","2011-09-22",73.94,62.96,3.00,0.00,0.00
"USC00199891","2011-09-23",69.98,64.94,23.00,0.00,0.00
"USC00199891","2011-09-24",71.96,66.92,249.00,0.00,0.00
"USC00199891","2011-09-25",71.06,66.02,0.00,0.00,0.00
"USC00199891","2011-09-26",,,0.00,0.00,0.00
"USC00199891","2011-09-27",82.04,64.04,0.00,0.00,0.00
"USC00199891","2011-09-28",73.94,62.06,0.00,0.00,0.00
"USC00199891","2011-09-29",71.96,64.04,36.00,0.00,0.00
"USC00199891","2011-09-30",73.94,60.98,114.00,0.00,0.00
"USC00199891","2011-10-01",77.00,62.96,3.00,0.00,0.00
"USC00199891","2011-10-02",71.96,60.98,56.00,0.00,0.00
"USC00199891","2011-10-03",71.06,55.04,3.00,0.00,0.00
"USC00199891","2011-10-04",66.92,55.04,58.00,0.00,0.00
"USC00199891","2011-10-05",64.94,55.04,30.00,0.00,0.00
"USC00199891","2011-10-06",64.94,50.00,10.00,0.00,0.00
"USC00199891","2011-10-07",62.96,42.98,0.00,0.00,0.00
"USC00199891","2011-10-08",59.00,42.98,0.00,,
"USC00199891","2011-10-09",69.98,57.92,0.00,0.00,0.00
"USC00199891","2011-10-10",78.98,59.00,0.00,0.00,0.00
"USC00199891","2011-10-11",78.08,55.94,0.00,0.00,0.00
"USC00199891","2011-10-12",66.02,51.98,0.00,0.00,0.00
"USC00199891","2011-10-13",64.94,51.98,142.00,0.00,0.00
"USC00199891","2011-10-14",68.00,60.98,89.00,0.00,0.00
"USC00199891","2011-10-15",68.00,59.00,157.00,,
"USC00199891","2011-10-16",64.04,55.04,18.00,0.00,0.00
"USC00199891","2011-10-17",64.04,57.02,20.00,0.00,0.00
"USC00199891","2011-10-18",64.04,55.94,10.00,0.00,0.00
"USC00199891","2011-10-19",66.02,55.04,0.00,0.00,0.00
"USC00199891","2011-10-20",69.98,60.08,345.00,0.00,0.00
"USC00199891","2011-10-21",69.98,57.02,8.00,0.00,0.00
"USC00199891","2011-10-22",60.08,53.06,0.00,0.00,0.00
"USC00199891","2011-10-23",60.08,46.94,0.00,0.00,0.00
"USC00199891","2011-10-24",57.92,42.98,0.00,0.00,0.00
"USC00199891","2011-10-25",60.08,42.98,13.00,0.00,0.00
"USC00199891","2011-10-26",57.92,48.02,0.00,0.00,0.00
"USC00199891","2011-10-27",53.06,46.94,20.00,0.00,0.00
"USC00199891","2011-10-28",53.06,35.96,229.00,0.00,0.00
"USC00199891","2011-10-29",46.94,35.96,0.00,0.00,0.00
"USC00199891","2011-10-30",46.04,33.98,335.00,0.00,0.00
"USC00199891","2011-10-31",44.96,35.06,0.00,0.00,0.00
"USC00199891","2011-11-01",51.98,35.96,0.00,0.00,0.00
"USC00199891","2011-11-02",51.08,39.02,0.00,0.00,0.00
"USC00199891","2011-11-03",55.94,39.02,0.00,0.00,0.00
"USC00199891","2011-11-04",59.00,48.02,0.00,0.00,0.00
"USC00199891","2011-11-06",48.92,35.06,0.00,0.00,0.00
"USC00199891","2011-11-07",53.06,37.94,0.00,0.00,0.00
"USC00199891","2011-11-08",55.94,48.92,0.00,0.00,0.00
"USC00199891","2011-11-09",66.92,48.02,0.00,0.00,0.00
"USC00199891","2011-11-10",64.04,51.08,0.00,0.00,0.00
"USC00199891","2011-11-11",60.08,46.94,48.00,,
"USC00199891","2011-11-12",60.08,39.92,0.00,0.00,0.00
"USC00199891","2011-11-13",53.06,39.92,0.00,0.00,0.00
"USC00199891","2011-11-14",59.00,51.08,0.00,0.00,0.00
"USC00199891","2011-11-15",60.08,55.94,0.00,0.00,0.00
"USC00199891","2011-11-16",64.94,53.06,8.00,0.00,0.00
"USC00199891","2011-11-17",57.92,51.08,208.00,0.00,0.00
"USC00199891","2011-11-18",51.98,37.04,58.00,0.00,0.00
"USC00199891","2011-11-19",46.04,37.04,0.00,0.00,0.00
"USC00199891","2011-11-20",55.94,44.96,0.00,0.00,0.00
"USC00199891","2011-11-21",59.00,46.94,18.00,0.00,0.00
"USC00199891","2011-11-22",48.02,35.06,3.00,0.00,0.00
"USC00199891","2011-11-23",53.96,35.06,318.00,,
"USC00199891","2011-11-24",,,,0.00,0.00
"USC00199891","2011-11-25",,,185.00,0.00,0.00
"USC00199891","2011-11-26",,,0.00,0.00,0.00
"USC00199891","2011-11-27",60.98,33.98,0.00,0.00,0.00
"USC00199891","2011-11-28",59.00,42.08,0.00,0.00,0.00
"USC00199891","2011-11-29",60.08,51.98,0.00,0.00,0.00
"USC00199891","2011-11-30",64.04,51.08,269.00,0.00,0.00
"USC00199891","2011-12-01",53.96,39.02,3.00,0.00,0.00
"USC00199891","2011-12-02",44.96,33.98,0.00,0.00,0.00
"USC00199891","2011-12-03",48.92,30.92,0.00,0.00,0.00
"USC00199891","2011-12-04",46.94,35.06,0.00,0.00,0.00
"USC00199891","2011-12-05",51.98,37.94,0.00,0.00,0.00
"USC00199891","2011-12-06",55.04,50.00,0.00,0.00,0.00
"USC00199891","2011-12-07",59.00,53.96,41.00,0.00,0.00
"USC00199891","2011-12-08",59.00,39.02,335.00,0.00,0.00
"USC00199891","2011-12-09",44.06,35.06,0.00,0.00,0.00
"USC00199891","2011-12-10",51.98,33.08,8.00,,
"USC00199891","2011-12-11",42.98,28.94,0.00,,
"USC00199891","2011-12-12",42.98,28.94,0.00,,
"USC00199891","2011-12-13",46.04,37.04,0.00,,
"USC00199891","2011-12-14",44.06,37.04,0.00,,
"USC00199891","2011-12-15",44.06,35.96,0.00,,
"USC00199891","2011-12-16",55.04,42.98,15.00,,
"USC00199891","2011-12-17",53.06,37.04,0.00,,
"USC00199891","2011-12-18",41.00,26.06,3.00,,
"USC00199891","2011-12-19",41.00,21.92,0.00,,
"USC00199891","2011-12-20",46.94,24.08,0.00,0.00,0.00
"USC00199891","2011-12-21",44.96,32.00,0.00,0.00,0.00
"USC00199891","2011-12-22",55.94,44.96,28.00,0.00,0.00
"USC00199891","2011-12-23",51.98,42.08,117.00,0.00,0.00
"USC00199891","2011-12-24",42.98,28.04,5.00,,
"USC00199891","2011-12-26",46.04,23.00,18.00,,
"USC00199891","2011-12-27",50.00,35.96,0.00,,
"USC00199891","2011-12-28",55.94,28.94,147.00,,
"USC00199891","2011-12-29",48.02,24.98,0.00,,
"USC00199891","2011-12-30",33.98,24.98,0.00,,
"USC00199891","2011-12-31",51.98,30.92,0.00,,
"USC00199891","2012-01-01",53.96,37.94,66.00,,
"USC00199891","2012-01-02",51.08,39.02,18.00,0.00,0.00
"USC00199891","2012-01-03",44.06,30.02,0.00,0.00,0.00
"USC00199891","2012-01-04",30.92,12.02,0.00,0.00,0.00
"USC00199891","2012-01-05",32.00,12.02,0.00,,
"USC00199891","2012-01-06",35.96,28.04,0.00,,
"USC00199891","2012-01-07",50.00,28.94,0.00,,
"USC00199891","2012-01-08",51.98,37.94,0.00,,
"USC00199891","2012-01-09",42.98,28.04,0.00,,
"USC00199891","2012-01-10",39.02,26.96,13.00,,
"USC00199891","2012-01-11",42.98,32.00,0.00,,
"USC00199891","2012-01-12",41.00,33.08,41.00,0.00,0.00
"USC00199891","2012-01-13",46.94,37.94,142.00,0.00,0.00
"USC00199891","2012-01-14",53.06,30.02,0.00,,
"USC00199891","2012-01-15",33.98,12.02,0.00,,
"USC00199891","2012-01-16",17.06,10.04,0.00,,
"USC00199891","2012-01-17",41.00,15.98,89.00,0.00,0.00
"USC00199891","2012-01-18",50.00,39.92,15.00,0.00,0.00
"USC00199891","2012-01-19",44.06,19.94,0.00,0.00,
"USC00199891","2012-01-20",35.06,19.94,23.00,8.00,0.00
"USC00199891","2012-01-21",,,0.00,0.00,0.00
"USC00199891","2012-01-22",32.00,21.92,175.00,180.00,178.00
"USC00199891","2012-01-23",33.98,26.06,0.00,0.00,152.00
"USC00199891","2012-01-24",51.98,33.08,81.00,0.00,0.00
"USC00199891","2012-01-25",48.02,35.06,0.00,0.00,0.00
"USC00199891","2012-01-26",41.00,32.00,0.00,0.00,0.00
"USC00199891","2012-01-27",42.98,30.92,46.00,0.00,0.00
"USC00199891","2012-01-28",55.04,35.96,130.00,0.00,0.00
"USC00199891","2012-01-29",44.06,35.06,0.00,0.00,0.00
"USC00199891","2012-01-30",42.98,35.06,0.00,0.00,0.00
"USC00199891","2012-01-31",39.02,28.94,0.00,0.00,0.00
"USC00199891","2012-02-01",48.92,35.06,0.00,0.00,0.00
"USC00199891","2012-02-02",53.96,35.06,3.00,0.00,0.00
"USC00199891","2012-02-03",44.06,28.94,0.00,0.00,0.00
"USC00199891","2012-02-04",35.96,28.04,0.00,0.00,0.00
"USC00199891","2012-02-05",42.98,26.06,0.00,0.00,0.00
"USC00199891","2012-02-06",33.98,26.06,0.00,0.00,0.00
"USC00199891","2012-02-07",42.98,33.08,0.00,0.00,0.00
"USC00199891","2012-02-08",,,0.00,0.00,0.00
"USC00199891","2012-02-09",46.94,26.06,3.00,5.00,0.00
"USC00199891","2012-02-10",42.08,26.96,0.00,0.00,0.00
"USC00199891","2012-02-11",46.94,32.00,33.00,0.00,0.00
"USC00199891","2012-02-12",33.98,17.96,36.00,3.00,0.00
"USC00199891","2012-02-13",28.94,17.96,0.00,0.00,0.00
"USC00199891","2012-02-14",37.94,26.06,0.00,0.00,0.00
"USC00199891","2012-02-15",42.98,33.08,0.00,0.00,0.00
"USC00199891","2012-02-16",42.98,30.02,0.00,0.00,0.00
"USC00199891","2012-02-17",44.96,30.02,15.00,0.00,0.00
"USC00199891","2012-02-18",44.96,33.98,0.00,0.00,0.00
"USC00199891","2012-02-19",44.06,32.00,0.00,0.00,0.00
"USC00199891","2012-02-20",42.98,28.04,0.00,0.00,0.00
"USC00199891","2012-02-21",44.06,26.96,0.00,0.00,0.00
"USC00199891","2012-02-22",42.08,26.96,66.00,0.00,0.00
"USC00199891","2012-02-23",50.00,39.92,20.00,0.00,0.00
"USC00199891","2012-02-24",51.98,32.00,46.00,8.00,0.00
"USC00199891","2012-02-25",48.02,30.92,94.00,0.00,0.00
"USC00199891","2012-02-26",44.06,28.94,0.00,0.00,0.00
"USC00199891","2012-02-27",39.92,26.06,0.00,0.00,0.00
"USC00199891","2012-02-28",46.94,28.04,0.00,0.00,0.00
"USC00199891","2012-03-05",51.08,28.94,0.00,0.00,0.00
"USC00199891","2012-03-06",39.92,21.02,0.00,0.00,0.00
"USC00199891","2012-03-07",39.02,21.02,0.00,0.00,0.00
"USC00199891","2012-03-08",48.92,39.02,0.00,0.00,0.00
"USC00199891","2012-03-09",53.06,37.94,178.00,0.00,0.00
"USC00199891","2012-03-10",44.06,30.02,5.00,0.00,0.00
"USC00199891","2012-03-11",39.02,28.94,0.00,0.00,0.00
"USC00199891","2012-03-12",44.96,37.94,0.00,0.00,0.00
"USC00199891","2012-03-13",53.06,42.98,0.00,0.00,0.00
"USC00199891","2012-03-14",48.92,42.98,5.00,0.00,0.00
"USC00199891","2012-03-15",55.04,37.94,0.00,,
"USC00199891","2012-03-16",44.96,33.08,0.00,,
"USC00199891","2012-03-17",41.00,37.04,0.00,,
"USC00199891","2012-03-18",51.98,39.02,0.00,,
"USC00199891","2012-03-19",51.08,41.00,0.00,,
"USC00199891","2012-03-20",60.08,41.00,0.00,,
"USC00199891","2012-03-21",60.08,41.00,0.00,,
"USC00199891","2012-03-22",66.92,46.94,0.00,0.00,0.00
"USC00199891","2012-03-23",60.08,46.94,0.00,0.00,0.00
"USC00199891","2012-03-25",50.00,42.98,0.00,0.00,0.00
"USC00199891","2012-03-26",44.96,39.92,0.00,0.00,0.00
"USC00199891","2012-03-27",50.00,28.04,0.00,0.00,0.00
"USC00199891","2012-03-28",44.96,26.96,0.00,0.00,0.00
"USC00199891","2012-03-29",51.08,39.02,58.00,0.00,0.00
"USC00199891","2012-03-30",44.06,37.04,8.00,0.00,0.00
"USC00199891","2012-03-31",48.92,35.96,8.00,,
"USC00199891","2012-04-01",39.02,32.00,38.00,0.00,0.00
"USC00199891","2012-04-02",48.92,33.08,46.00,0.00,0.00
"USC00199891","2012-04-03",48.02,35.96,5.00,0.00,0.00
"USC00199891","2012-04-04",53.96,35.96,0.00,0.00,0.00
"USC00199891","2012-04-05",60.08,39.02,0.00,0.00,0.00
"USC00199891","2012-04-06",51.08,35.96,0.00,0.00,0.00
"USC00199891","2012-04-07",48.92,35.96,0.00,0.00,0.00
"USC00199891","2012-04-08",51.08,37.04,0.00,0.00,0.00
"USC00199891","2012-04-09",51.98,41.00,0.00,0.00,0.00
"USC00199891","2012-04-10",55.04,44.06,0.00,0.00,0.00
"USC00199891","2012-04-11",55.94,41.00,0.00,0.00,0.00
"USC00199891","2012-04-12",55.94,41.00,0.00,0.00,0.00
"USC00199891","2012-04-13",53.96,39.02,0.00,0.00,0.00